User: anonymous
Location: Caltech
(34.1382°N, 118.1253°W)
Time: 18:35:48
(UTC-07:00)
Language:

Iridium 91 - Orbit

View from above orbital plane
View from above orbital plane
View from above satellite
View from above satellite

Ground track
Ground track

The orbit data is extracted from the following two-line orbital elements,

1 27372U 02005A   14294.17723762  .00000586  00000-0  20216-3 0  5374
2 27372 086.3969 333.1673 0002901 129.9207 291.2077 14.34218251672590
Epoch (UTC): 21 October 2014 04:15:13
Eccentricity: 0.0002901
inclination: 86.3969°
perigee height: 775 km
apogee height: 780 km
right ascension of ascending node: 333.1673°
argument of perigee: 129.9207°
revolutions per day: 14.34218251
mean anomaly at epoch: 291.2077°
orbit number at epoch: 67259

The dashed part of the orbit path shows where the satellite is in the earth's shadow,  

DLR